Weather History for Springfield, MO

Change the Weather History Date:

Friday, March 22, 2013

  Actual Average Record
Temperature  
Mean Temperature 35 °F 48 °F  
Max Temperature 38 °F 60 °F 88 °F (1907)
Min Temperature 31 °F 37 °F 12 °F (1955)
Degree Days  
Heating Degree Days 30 17  
Month to date heating degree days 525 441  
Since 1 July heating degree days 3823 4034  
Cooling Degree Days 0 0  
Month to date cooling degree days 0 0  
Year to date cooling degree days 0 0  
Moisture  
Dew Point 31 °F    
Average Humidity 93    
Maximum Humidity 100    
Minimum Humidity 85    
Precipitation  
Precipitation 0.01 in 0.12 in 1.75 in (1906)
Month to date precipitation 3.55 2.47  
Year to date precipitation 8.89 7.46  
Snow  
Snow T in - - ()
Month to date snowfall 3.0  
Since 1 July snowfall 10.0  
Snow Depth 2.00 in    
Sea Level Pressure  
Sea Level Pressure 29.92 in    
Wind  
Wind Speed 8 mph (ESE)    
Max Wind Speed 15 mph    
Max Gust Speed 20 mph    
Visibility 9 miles    
Events Rain    
T = Trace of Precipitation, MM = Missing Value Source: NWS Daily Summary

Daily Weather History Graph

Daily Weather History Graph

Search for Another Location

Airport:

Trip Planner

Search our weather history database for the weather conditions in past years. The results will help you decide how hot, cold, wet, or windy it might be!

Date:

Astronomy

Mar. 22, 2013 Rise Set
Actual Time 7:13 AM CDT 7:27 PM CDT
Civil Twilight 6:47 AM CDT 7:53 PM CDT
Nautical Twilight 6:17 AM CDT 8:23 PM CDT
Astronomical Twilight 5:46 AM CDT 8:54 PM CDT
Moon 3:00 PM CDT (3/22) 4:08 AM CDT (3/22)
Length of Visible Light 13h 05m
Length of Day
12h 13m
Waxing Gibbous, 77% of the Moon is Illuminated
Mar 22
Waxing Gibbous
Mar 27
Full
Apr 2
Last Quarter
Apr 10
New
Apr 18
First Quarter

Hourly Weather History & Observations

Time (CDT) Temp. Windchill Dew Point Humidity Pressure Visibility Wind Dir Wind Speed Gust Speed Precip Events Conditions
12:43 AM 30.9 °F 20.7 °F 28.0 °F 89% 29.87 in 10.0 mi SE 13.8 mph - 0.00 in   Overcast
12:52 AM 30.9 °F 19.8 °F 28.0 °F 89% 29.90 in 10.0 mi SE 16.1 mph - 0.00 in   Overcast
1:10 AM 30.9 °F 21.2 °F 28.0 °F 89% 29.87 in 9.0 mi SE 12.7 mph - N/A   Overcast
1:52 AM 30.9 °F 20.7 °F 28.9 °F 92% 29.89 in 9.0 mi ESE 13.8 mph - N/A   Overcast
2:52 AM 30.9 °F 22.2 °F 28.9 °F 92% 29.89 in 10.0 mi ESE 10.4 mph - N/A   Overcast
3:15 AM 30.9 °F 22.8 °F 28.9 °F 92% 29.87 in 7.0 mi ESE 9.2 mph - 0.00 in Rain Light Freezing Rain
3:36 AM 30.9 °F 23.5 °F 28.9 °F 92% 29.88 in 10.0 mi SE 8.1 mph - 0.00 in   Overcast
3:52 AM 30.9 °F 24.3 °F 28.9 °F 92% 29.91 in 10.0 mi ESE 6.9 mph - 0.00 in   Overcast
4:18 AM 30.9 °F 22.8 °F 28.9 °F 92% 29.87 in 8.0 mi East 9.2 mph - 0.01 in Rain Light Freezing Rain
4:42 AM 30.9 °F 22.8 °F 28.9 °F 92% 29.87 in 9.0 mi East 9.2 mph - 0.01 in   Overcast
4:52 AM 30.9 °F 22.8 °F 28.9 °F 92% 29.91 in 10.0 mi ESE 9.2 mph - 0.01 in   Overcast
5:52 AM 32.0 °F 24.8 °F 28.9 °F 88% 29.91 in 10.0 mi East 8.1 mph - 0.00 in   Overcast
6:52 AM 32.0 °F 25.6 °F 28.9 °F 88% 29.94 in 7.0 mi East 6.9 mph - N/A   Overcast
7:52 AM 30.9 °F 23.5 °F 30.0 °F 96% 29.95 in 4.0 mi ESE 8.1 mph - N/A   Overcast
8:52 AM 32.0 °F 23.6 °F 30.0 °F 92% 29.94 in 10.0 mi ESE 10.4 mph - N/A   Overcast
9:52 AM 32.0 °F 24.2 °F 30.0 °F 92% 29.94 in 10.0 mi ESE 9.2 mph - N/A   Overcast
10:52 AM 34.0 °F 26.0 °F 30.9 °F 89% 29.94 in 10.0 mi SE 10.4 mph - N/A   Overcast
11:52 AM 34.0 °F 25.5 °F 30.9 °F 89% 29.95 in 10.0 mi SE 11.5 mph - N/A   Overcast
12:52 PM 35.1 °F 27.9 °F 32.0 °F 89% 29.94 in 10.0 mi SE 9.2 mph - N/A   Overcast
1:52 PM 35.1 °F 27.9 °F 32.0 °F 89% 29.94 in 10.0 mi SSE 9.2 mph - N/A   Overcast
2:52 PM 36.0 °F 33.3 °F 32.0 °F 86% 29.94 in 10.0 mi ESE 3.5 mph - N/A   Overcast
3:47 PM 37.4 °F 33.8 °F 33.8 °F 87% 29.89 in 10.0 mi SE 4.6 mph - N/A   Overcast
3:52 PM 37.0 °F 33.3 °F 33.1 °F 86% 29.92 in 10.0 mi ESE 4.6 mph - N/A   Overcast
4:52 PM 37.9 °F 32.1 °F 33.1 °F 83% 29.91 in 10.0 mi East 8.1 mph - N/A   Overcast
5:52 PM 37.0 °F 33.3 °F 33.1 °F 86% 29.92 in 10.0 mi ESE 4.6 mph - N/A   Overcast
6:52 PM 37.0 °F 32.4 °F 33.1 °F 86% 29.93 in 9.0 mi ESE 5.8 mph - N/A   Overcast
7:52 PM 36.0 °F 32.1 °F 33.1 °F 89% 29.95 in 8.0 mi ESE 4.6 mph - N/A   Overcast
8:22 PM 37.0 °F 34.5 °F 34.0 °F 89% 29.93 in 8.0 mi East 3.5 mph - N/A   Overcast
8:52 PM 36.0 °F 30.3 °F 34.0 °F 93% 29.96 in 6.0 mi East 6.9 mph - N/A   Overcast
9:52 PM 36.0 °F 29.6 °F 34.0 °F 93% 29.95 in 6.0 mi East 8.1 mph - N/A   Overcast
10:29 PM 36.0 °F 29.6 °F 34.0 °F 93% 29.92 in 5.0 mi East 8.1 mph - N/A   Overcast
10:52 PM 36.0 °F 32.1 °F 34.0 °F 93% 29.96 in 6.0 mi ESE 4.6 mph - N/A   Overcast
11:52 PM 35.1 °F 31.0 °F 33.1 °F 92% 29.98 in 7.0 mi ESE 4.6 mph - N/A   Overcast